CW1187 Weather Reports


Display with metric or nautical units.
time (UTC)temp
F
wind
direction
speed
MPH
gust
MPH
rain 1hr
in
rain 24hr
in
rain mn
in
humidity
%
barometer
mb
20260506121533 45 337 1.0 3.0 0.00 1.25 0.21 84 1011.8
20260506121020 45 0 0.0 2.0 0.00 1.25 0.21 84 1011.8
20260506120520 45 0 0.0 3.0 0.00 1.25 0.21 85 1011.8
20260506120055 45 337 1.0 3.0 0.00 1.25 0.21 85 1011.7
20260506115523 45 339 1.0 3.0 0.00 1.25 0.21 86 1011.6
20260506115017 45 340 0.0 2.0 0.00 1.25 0.21 87 1011.5
20260506114538 44 0 0.0 4.0 0.00 1.25 0.21 87 1011.4
20260506114019 44 341 1.0 4.0 0.00 1.25 0.21 87 1011.3
20260506113519 44 0 0.0 3.0 0.00 1.25 0.21 86 1011.1
20260506113039 44 342 0.0 3.0 0.00 1.25 0.21 85 1011.0
20260506112519 44 344 1.0 5.0 0.00 1.25 0.21 85 1010.7
20260506112019 44 348 1.0 5.0 0.00 1.25 0.21 85 1010.4
20260506111544 43 0 1.0 5.0 0.00 1.25 0.21 85 1010.7
20260506111019 43 342 3.0 5.0 0.00 1.25 0.21 85 1010.5
20260506110520 43 339 2.0 5.0 0.00 1.25 0.21 85 1010.4
20260506110032 43 347 2.0 4.0 0.00 1.25 0.21 85 1010.5
20260506105522 43 350 1.0 3.0 0.00 1.25 0.21 84 1010.4
20260506105020 43 349 1.0 5.0 0.00 1.25 0.21 85 1010.3
20260506104550 43 0 1.0 5.0 0.00 1.25 0.21 85 1010.1
20260506104024 43 344 1.0 5.0 0.00 1.25 0.21 86 1010.1
20260506103522 43 337 2.0 5.0 0.00 1.25 0.21 86 1010.1
20260506103045 43 336 2.0 5.0 0.00 1.25 0.21 86 1010.2
20260506102522 43 342 1.0 4.0 0.00 1.25 0.21 86 1010.0
20260506102020 43 336 1.0 4.0 0.00 1.25 0.21 86 1010.4
20260506101540 43 350 1.0 4.0 0.00 1.25 0.21 86 1010.4
20260506101019 43 0 1.0 5.0 0.00 1.25 0.21 85 1010.3
20260506100521 43 332 2.0 5.0 0.00 1.25 0.21 85 1009.9
20260506100042 43 342 2.0 5.0 0.00 1.25 0.21 85 1010.1
20260506095520 43 344 2.0 4.0 0.00 1.27 0.21 85 1010.0
20260506095020 43 340 1.0 5.0 0.00 1.27 0.21 85 1009.7
20260506094535 43 338 1.0 5.0 0.00 1.27 0.21 85 1009.7
20260506094019 43 352 2.0 5.0 0.00 1.27 0.21 86 1009.7
20260506093520 43 339 1.0 3.0 0.00 1.27 0.21 86 1009.7
20260506093039 43 355 0.0 2.0 0.00 1.27 0.21 86 1009.3
20260506092520 43 355 0.0 6.0 0.00 1.27 0.21 86 1009.4
20260506092020 43 355 1.0 6.0 0.00 1.27 0.21 86 1009.2
20260506091540 43 344 3.0 8.0 0.00 1.27 0.21 86 1009.4
20260506091020 43 355 3.0 9.0 0.00 1.27 0.21 86 1009.5
20260506090519 43 341 3.0 9.0 0.00 1.27 0.21 86 1009.7
20260506090041 43 360 2.0 9.0 0.00 1.27 0.21 86 1009.7
20260506085519 43 329 3.0 10.0 0.00 1.42 0.21 86 1009.8
20260506085019 43 9 4.0 10.0 0.00 1.42 0.21 86 1009.9
20260506084611 43 355 4.0 9.0 0.00 1.42 0.21 87 1009.7
20260506084020 43 355 3.0 8.0 0.00 1.42 0.21 87 1009.7
20260506083519 43 5 2.0 4.0 0.00 1.42 0.21 86 1009.2
20260506083038 43 5 0.0 4.0 0.00 1.42 0.21 86 1009.0
20260506082519 43 5 1.0 5.0 0.00 1.42 0.21 86 1008.8
20260506082020 43 360 2.0 6.0 0.00 1.42 0.21 86 1008.6
20260506081542 43 348 1.0 7.0 0.00 1.42 0.21 87 1008.6
20260506081020 43 355 3.0 7.0 0.01 1.42 0.21 86 1009.2
20260506080520 43 355 2.0 5.0 0.01 1.42 0.21 86 1009.2
20260506073519 43 22 2.0 8.0 0.03 1.56 0.21 86 1008.3
20260506073038 43 20 2.0 9.0 0.04 1.56 0.21 86 1008.8
20260506072519 43 13 2.0 10.0 0.05 1.56 0.21 87 1008.9
20260506072020 43 15 2.0 10.0 0.05 1.56 0.21 87 1008.9
20260506071535 43 23 2.0 8.0 0.04 1.55 0.20 88 1008.7
20260506071020 43 53 2.0 4.0 0.04 1.55 0.20 89 1008.8
20260506070520 44 42 1.0 3.0 0.04 1.55 0.20 89 1008.7
20260506062021 44 348 2.0 8.0 0.02 1.61 0.16 89 1009.1
20260506061539 44 348 3.0 8.0 0.02 1.61 0.16 88 1009.1
20260506061021 44 19 3.0 8.0 0.03 1.61 0.16 89 1009.1
20260506060521 44 15 3.0 8.0 0.04 1.61 0.16 89 1009.0
20260506051020 46 5 3.0 10.0 0.09 1.58 0.13 91 1008.3
20260506050521 46 352 3.0 10.0 0.09 1.57 0.12 91 1008.5
20260506045019 46 9 3.0 7.0 0.16 1.56 0.11 91 1008.9
20260506044540 46 35 1.0 3.0 0.17 1.55 0.10 91 1008.8
20260506044019 46 0 1.0 5.0 0.18 1.54 0.09 91 1008.8
20260506043517 46 42 1.0 5.0 0.18 1.53 0.08 91 1008.5
20260506043044 46 27 1.0 6.0 0.18 1.53 0.08 91 1008.5
20260506042519 46 0 2.0 7.0 0.18 1.52 0.07 91 1008.5
20260506042017 46 55 4.0 7.0 0.18 1.51 0.06 90 1007.7
20260506041541 46 46 2.0 5.0 0.18 1.50 0.05 90 1007.8
20260506041020 46 29 2.0 8.0 0.17 1.49 0.04 91 1008.2
20260506040517 46 42 2.0 14.0 0.15 1.47 0.02 90 1008.7
20260506040040 47 34 3.0 14.0 0.14 1.45 0.00 90 1009.0
20260506035519 47 325 6.0 11.0 0.14 1.42 1.42 91 1009.2
20260506035020 47 342 2.0 5.0 0.16 1.40 1.40 91 1008.6
20260506034539 47 355 1.0 5.0 0.19 1.38 1.38 91 1008.6
20260506034019 47 9 2.0 7.0 0.19 1.36 1.36 91 1008.4
20260506033517 47 49 3.0 8.0 0.19 1.35 1.35 90 1007.8
20260506033033 47 52 3.0 8.0 0.19 1.35 1.35 91 1007.5
20260506032521 47 55 2.0 4.0 0.18 1.34 1.34 91 1007.5
20260506032019 47 30 2.0 5.0 0.16 1.32 1.32 91 1007.8
20260506031610 47 11 2.0 6.0 0.16 1.32 1.32 91 1008.1
20260506031020 47 51 3.0 6.0 0.16 1.32 1.32 91 1007.7
20260506030520 47 50 2.0 6.0 0.16 1.32 1.32 90 1007.7
20260506030040 47 31 2.0 11.0 0.15 1.31 1.31 90 1008.1
20260506025519 48 14 3.0 11.0 0.12 1.28 1.28 91 1008.7
20260506025019 48 345 6.0 11.0 0.08 1.23 1.23 91 1009.1
20260506024539 48 355 4.0 10.0 0.03 1.17 1.17 91 1008.9
20260506024017 48 343 4.0 10.0 0.02 1.16 1.16 91 1008.2
20260506023520 48 49 2.0 8.0 0.01 1.16 1.16 91 1007.7
20260506023052 47 59 2.0 8.0 0.02 1.16 1.16 91 1007.5
20260506022520 48 38 4.0 8.0 0.03 1.16 1.16 91 1007.3
20260506022026 48 42 1.0 7.0 0.04 1.16 1.16 91 1007.7
20260506021600 48 41 3.0 7.0 0.04 1.16 1.16 91 1007.4
20260506021023 48 54 2.0 6.0 0.06 1.16 1.16 91 1007.6
20260506020519 48 44 2.0 5.0 0.08 1.16 1.16 91 1007.4
20260506020039 48 57 2.0 6.0 0.11 1.16 1.16 91 1007.4
20260506015523 48 42 3.0 6.0 0.12 1.16 1.16 90 1007.5
20260506015021 48 58 2.0 4.0 0.11 1.15 1.15 91 1007.9
20260506014539 48 44 2.0 5.0 0.11 1.15 1.15 91 1007.9
20260506014117 48 55 1.0 5.0 0.11 1.15 1.15 91 1007.9
20260506013520 48 49 2.0 5.0 0.11 1.15 1.15 91 1007.6
20260506013038 48 40 1.0 3.0 0.11 1.14 1.14 91 1007.8
20260506012517 48 355 1.0 3.0 0.10 1.12 1.12 90 1007.9
20260506012016 48 326 1.0 3.0 0.12 1.12 1.12 90 1008.2
20260506011534 48 33 1.0 5.0 0.12 1.11 1.11 90 1008.1
20260506011017 48 30 2.0 5.0 0.11 1.10 1.10 90 1007.9
20260506010520 48 43 2.0 3.0 0.10 1.07 1.07 90 1007.9
20260506010040 48 30 1.0 3.0 0.09 1.04 1.04 90 1008.1
20260506005521 48 19 1.0 8.0 0.09 1.04 1.04 90 1008.2
20260506005025 48 14 1.0 8.0 0.11 1.04 1.04 91 1008.0
20260506004539 48 23 2.0 8.0 0.13 1.04 1.04 91 1007.9
20260506004021 48 14 2.0 7.0 0.16 1.04 1.04 90 1007.8
20260506003519 48 31 1.0 4.0 0.18 1.04 1.04 90 1007.6
20260506003038 48 19 2.0 4.0 0.19 1.03 1.03 90 1007.6
20260506002517 48 0 1.0 4.0 0.20 1.02 1.02 90 1007.4
20260506002020 48 11 2.0 9.0 0.21 1.00 1.00 90 1007.6
20260506001536 48 60 2.0 9.0 0.23 0.99 0.99 90 1007.6
20260506001021 48 15 3.0 9.0 0.25 0.99 0.99 90 1008.2
20260506000521 48 360 3.0 10.0 0.25 0.97 0.97 90 1008.2
20260506000045 48 347 4.0 10.0 0.25 0.96 0.96 90 1008.2
20260505235520 48 12 2.0 8.0 0.24 0.95 0.95 90 1008.1
20260505235020 48 11 3.0 9.0 0.23 0.93 0.93 90 1008.2
20260505234826 49 13 3.0 12.0 0.22 0.91 0.91 90 1008.2
20260505233140 49 338 4.0 12.0 0.15 0.83 0.83 90 1007.7
20260505231254 49 16 6.0 19.0 0.16 0.73 0.73 89 1007.8
20260505224312 52 333 10.0 19.0 0.15 0.69 0.69 89 1007.6
20260505223510 53 355 7.0 17.0 0.13 0.67 0.67 89 1007.4
20260505222959 54 360 5.0 17.0 0.12 0.66 0.66 88 1007.4
20260505215554 59 213 2.0 4.0 0.00 0.54 0.54 90 1007.2
20260505215020 59 236 2.0 4.0 0.00 0.54 0.54 90 1007.2
20260505214549 59 230 1.0 4.0 0.00 0.54 0.54 90 1007.2
20260505214018 59 216 1.0 6.0 0.00 0.54 0.54 90 1007.1
20260505213520 59 220 2.0 7.0 0.00 0.54 0.54 90 1007.2
20260505213038 59 221 2.0 7.0 0.00 0.54 0.54 90 1007.1
20260505212520 59 216 2.0 7.0 0.00 0.54 0.54 90 1007.1
20260505212020 59 217 2.0 7.0 0.00 0.54 0.54 90 1007.1
20260505211539 59 242 3.0 7.0 0.00 0.54 0.54 90 1007.1
20260505211019 59 195 1.0 6.0 0.00 0.54 0.54 90 1007.2
20260505210519 59 211 2.0 6.0 0.00 0.54 0.54 90 1007.1
20260505210035 59 211 3.0 8.0 0.00 0.54 0.54 90 1007.2
20260505205520 59 219 2.0 9.0 0.00 0.54 0.54 90 1007.2
20260505205018 59 190 3.0 9.0 0.00 0.54 0.54 90 1007.4
20260505204538 59 212 3.0 9.0 0.00 0.54 0.54 90 1007.4
20260505204019 59 190 2.0 7.0 0.00 0.54 0.54 90 1007.4
20260505203517 59 196 2.0 9.0 0.00 0.54 0.54 90 1007.4
20260505203051 59 195 3.0 9.0 0.01 0.54 0.54 90 1007.3
20260505202518 59 196 2.0 8.0 0.01 0.54 0.54 90 1007.5
20260505202019 59 187 2.0 9.0 0.01 0.54 0.54 90 1007.4
20260505201541 58 169 3.0 9.0 0.01 0.54 0.54 90 1007.4
20260505201023 58 208 3.0 9.0 0.01 0.54 0.54 90 1007.4
20260505200519 58 201 2.0 10.0 0.02 0.54 0.54 90 1007.6
20260505200047 58 209 1.0 10.0 0.02 0.54 0.54 90 1007.6
20260505195520 58 213 3.0 6.0 0.03 0.55 0.54 90 1007.6
20260505195019 58 207 2.0 7.0 0.03 0.55 0.54 89 1007.6
20260505194539 58 165 3.0 9.0 0.04 0.55 0.54 89 1007.6
20260505194022 58 197 3.0 9.0 0.05 0.55 0.54 89 1007.6
20260505193518 58 228 2.0 8.0 0.06 0.55 0.54 89 1007.8
20260505193038 58 223 3.0 10.0 0.06 0.54 0.52 89 1007.9
20260505192520 59 162 4.0 10.0 0.07 0.54 0.52 89 1007.9
20260505192017 59 162 3.0 9.0 0.08 0.54 0.52 89 1008.0
20260505191535 59 161 3.0 9.0 0.08 0.54 0.52 89 1008.0
20260505191016 59 169 2.0 7.0 0.09 0.54 0.52 89 1007.9
20260505190517 59 209 2.0 10.0 0.10 0.52 0.52 89 1008.1
20260505190042 59 202 3.0 11.0 0.11 0.52 0.52 89 1007.9
20260505185521 59 212 4.0 11.0 0.10 0.52 0.51 88 1008.0
20260505185021 59 208 4.0 11.0 0.10 0.52 0.51 88 1008.3
20260505184539 60 240 2.0 9.0 0.09 0.51 0.50 88 1008.3
20260505184021 60 238 3.0 11.0 0.08 0.50 0.49 88 1008.2
20260505183519 60 211 4.0 11.0 0.07 0.49 0.48 87 1008.3
20260505183039 60 217 3.0 11.0 0.06 0.48 0.47 87 1008.4
20260505182519 60 217 5.0 10.0 0.05 0.47 0.46 86 1008.5
20260505182019 60 198 2.0 8.0 0.04 0.46 0.45 86 1008.4
20260505181543 60 258 2.0 7.0 0.04 0.46 0.45 85 1008.4
20260505181017 61 242 2.0 11.0 0.02 0.44 0.43 84 1008.5
20260505180518 61 230 3.0 11.0 0.01 0.43 0.42 82 1008.6
20260505180038 61 221 3.0 11.0 0.00 0.42 0.41 82 1008.6
20260505175517 61 195 3.0 9.0 0.00 0.42 0.41 81 1008.6
20260505175018 61 222 2.0 9.0 0.00 0.42 0.41 81 1008.4
20260505174544 61 274 2.0 9.0 0.00 0.42 0.41 81 1008.5
20260505174020 61 206 4.0 9.0 0.00 0.42 0.41 80 1008.2
20260505173520 61 189 3.0 11.0 0.00 0.42 0.41 81 1008.5
20260505173039 61 202 2.0 11.0 0.00 0.42 0.41 81 1008.4
20260505172519 62 220 3.0 7.0 0.00 0.42 0.41 81 1008.4
20260505172020 62 248 2.0 7.0 0.00 0.42 0.41 81 1008.4
20260505171544 62 251 2.0 9.0 0.00 0.42 0.41 80 1008.6
20260505171020 62 221 2.0 10.0 0.00 0.42 0.41 79 1008.5
20260505170520 62 219 3.0 10.0 0.00 0.42 0.41 78 1008.6
20260505170100 62 202 3.0 10.0 0.00 0.42 0.41 78 1008.5
20260505165517 62 185 3.0 9.0 0.00 0.42 0.41 78 1008.3
20260505165017 63 246 3.0 9.0 0.00 0.42 0.41 77 1008.5
20260505164542 63 220 4.0 11.0 0.00 0.42 0.41 77 1008.5
20260505164017 63 230 4.0 16.0 0.00 0.42 0.41 77 1008.6
20260505163519 63 204 4.0 16.0 0.00 0.42 0.41 76 1008.6
20260505163042 63 195 3.0 10.0 0.00 0.42 0.41 77 1008.5
20260505162520 63 237 3.0 12.0 0.00 0.42 0.41 77 1008.5
20260505162020 63 195 3.0 14.0 0.00 0.42 0.41 76 1008.4
20260505161540 63 194 5.0 14.0 0.00 0.42 0.41 75 1008.5
20260505161020 63 194 5.0 12.0 0.00 0.42 0.41 75 1008.4
20260505160520 64 175 4.0 13.0 0.00 0.42 0.41 75 1008.5
20260505153041 63 233 5.0 14.0 0.00 0.42 0.41 77 1008.8
20260505152517 63 209 5.0 13.0 0.00 0.42 0.41 82 1008.7
20260505152021 63 184 5.0 13.0 0.00 0.42 0.41 77 1008.6
20260505151553 63 199 3.0 8.0 0.00 0.42 0.41 78 1008.7
20260505151020 63 238 2.0 10.0 0.00 0.42 0.41 80 1008.7
20260505150523 63 178 4.0 10.0 0.00 0.42 0.41 78 1008.5
20260505140520 62 207 2.0 8.0 0.00 0.42 0.41 82 1008.1
20260505125017 58 164 3.0 10.0 0.00 0.42 0.41 87 1007.5
20260505124535 58 202 4.0 8.0 0.00 0.42 0.41 87 1007.5
20260505124022 57 193 4.0 11.0 0.00 0.42 0.41 87 1007.6
20260505123519 57 180 3.0 11.0 0.00 0.42 0.41 87 1007.4
20260505123034 57 164 4.0 11.0 0.00 0.42 0.41 87 1007.6
20260505122520 56 156 5.0 12.0 0.00 0.42 0.41 88 1007.5
20260505122020 56 178 3.0 14.0 0.00 0.42 0.41 88 1007.5